www.pogodaiklimat.ru

Погода и климат >> Архив погоды >> Россия >> Свердловская область >> Таборы


ПОГОДА в Таборах

  • Прогноз погоды в Таборах
  • Монитор погоды в Таборах
  • Климат города

АРХИВ ПОГОДЫ в Таборах

Время (UTC), дата Ветер
(напр.,м/с)
 
Видим.   Явления Облачность Т
(С)
Тd
(С)
f
(%)
Тe
(С)
Тes
(С)
Комфортность P
(гПа)
Po
(гПа)
Тmin
(С)
Tmax
(С)
R
(мм)
R24
(мм)
S
(см)
03 15.10 З 1 50 км 8/0
[Ac trans Ci fib]
-3.5 -4.1 96 -6 -6 1014.8 1006.9 -4.3
06 15.10 С 1 50 км 3/0
[Ci fib]
+3.8 +0.1 77 +3 +5 1014.5 1006.8
09 15.10 СВ 1 50 км 6/0
[Ci fib]
+9.2 -0.9 49 +9 +12 1013.7 1006.2
12 15.10 штиль 0 50 км 8/0
[Ci fib]
+8.5 -0.2 54 +8 +8 1013.6 1006.1
15 15.10 СЗ 1 50 км 3/0
[Ci fib]
-0.9 -2.2 91 -3 -3 1014.7 1006.9 +10.4
18 15.10 штиль 0 6000 м дымка 3/0
[Ci fib]
-2.2 -2.8 96 -4 -4 1015.3 1007.5
21 15.10 штиль 0 6000 м дымка 1/0
[Ci fib]
-3.3 -3.8 96 -5 -5 1016.1 1008.2
00 16.10 З 1 3000 м дымка 3/0
[Ci fib]
-4.4 -5.1 95 -7 -7 1016.7 1008.8
03 16.10 СВ 1 6000 м дымка 8/0
[Ci sp]
-3.2 -3.8 96 -6 -6 1018.4 1010.5 -5.5
06 16.10 В 2 50 км 10/0
[Ci fib]
+3.8 +0.2 77 +1 +3 1018.9 1011.2
09 16.10 В 4 50 км 10/0
[Ci fib]
+8.2 -1.0 52 +5 +7 1019.1 1011.5
12 16.10 В 3 50 км 10/0
[Cs]
+6.7 -0.9 58 +4 +4 1019.6 1012.0
15 16.10 В 2 50 км 10/0
[Ci fib]
+3.8 -2.4 64 +1 +1 1020.6 1012.9 +8.6
18 16.10 ЮВ 2 50 км 8/0
[Ci fib]
+2.4 -1.8 74 -1 -1 1021.0 1013.2
21 16.10 ЮВ 3 50 км 4/0
[Ci fib]
+0.9 -2.2 80 -3 -3 1020.5 1012.7
00 17.10 ЮВ 2 н/о н/о -0.5 -2.9 84 -4 -4 1019.5 1011.7
03 17.10 ЮВ 2 50 км 8/0
[Ci fib]
-1.3 -3.3 86 -5 -5 1018.3 1010.5 -1.3
06 17.10 ЮВ 3 50 км 8/0
[Ci fib]
+4.1 -0.7 71 +1 +2 1016.8 1009.1
09 17.10 ЮВ 3 50 км 8/0
[Ci fib]
+9.4 +0.9 55 +7 +9 1014.3 1006.8
12 17.10 ЮВ 3 50 км 5/0
[Ci fib]
+8.6 +0.5 57 +6 +6 1012.1 1004.6
15 17.10 В 3 50 км 4/0
[Ci fib]
+5.3 +0.4 71 +2 +2 1010.7 1003.1 +10.6
18 17.10 ЮВ 2 50 км 9/0
[Ac trans]
+4.6 +0.2 73 +2 +2 1009.0 1001.5
21 17.10 ЮВ 2 н/о н/о +2.7 -0.8 78 -0 -0 1006.5 998.8
00 18.10 ЮВ 2 50 км 8/0
[Ac trans]
+2.1 -0.7 82 -1 -1 1004.7 997.1
03 18.10 ЮВ 3 50 км 10/0
[Ac und]
+2.5 +0.5 87 -2 -2 1004.1 996.5 +1.8
06 18.10 ЮВ 3 15 км слабая морось 10/10 360 м
[St]
+4.1 +2.3 88 0 0 1003.1 995.6
09 18.10 Ю 2 8000 м слабый ливневой дождь {морось} 10/10 450 м
[Cb cap]
+5.0 +3.8 92 +2 +2 1002.1 994.6
12 18.10 Ю 2 6000 м слабый ливневой дождь {морось} 10/10 400 м
[Cb cap]
+5.0 +4.0 93 +2 +2 1002.0 994.5
15 18.10 ЮЗ 2 6000 м дымка {ливн. осадки} 10/10 330 м
[St]
+4.9 +4.1 95 +2 +2 1002.8 995.2 +5.1 4
18 18.10 ЮЗ 2 8000 м дымка {ливн. осадки} 10/10 480 м
[Cb cap]
+3.1 +2.4 95 -0 -0 1002.5 994.9
21 18.10 ЮЗ 1 50 км 8/0
[Ac trans]
+0.7 +0.2 96 -1 -1 1002.2 994.5
00 19.10 Ю 2 н/о н/о -0.4 -0.8 97 -4 -4 1001.8 994.1
03 19.10 Ю 2 8000 м дымка 8/0
[Ac trans Ci fib]
-1.6 -2.1 96 -6 -6 1001.7 993.9 -1.7
06 19.10 Ю 2 9000 м дымка 9/0
[Ci sp]
+3.6 +2.3 91 +1 +2 1000.3 992.8 -1.8
09 19.10 Ю 5
{10}
50 км 9/3 600 м
[Sc Ac trans]
+6.2 +1.1 70 +2 +3 998.7 991.2
12 19.10 Ю 4 50 км 9/0
[Ac trans]
+5.7 +1.0 72 +2 +2 997.3 989.8
15 19.10 Ю 4 50 км 10/0
[Ac und]
+6.0 +1.3 72 +2 +2 995.2 987.7 +6.6
18 19.10 Ю 4 50 км {ливн. осадки} 10/10 360 м
[Cb cap]
+5.0 +3.4 89 +1 +1 993.0 985.5
21 19.10 ЮЗ 5 50 км {ливн. осадки} 10/10 400 м
[Cb cap]
+4.4 +2.5 87 -1 -1 992.1 984.6
00 20.10 ЮЗ 5 50 км {ливн. осадки} 10/0
[Cs]
+3.4 +0.1 79 -2 -2 991.2 983.7
03 20.10 ЮЗ 7-11
{11}
15 км слабая морось 10/10 300 м
[St]
+3.3 +0.3 81 -3 -3 991.2 983.7 +2.8 1
06 20.10 ЮЗ 7-12
{12}
15 км слабая морось 10/10 360 м
[St]
+3.4 +0.6 82 -3 -3 991.0 983.5
09 20.10 ЮЗ 7-11
{13}
10 км слабый ливневой дождь {морось} 10/8 450 м
[Cb cap Ac und]
+3.1 +1.4 89 -3 -3 991.6 984.1
12 20.10 З 8-14
{14}
50 км {ливн. осадки, морось} 10/10 300 м
[Cb cap]
+2.1 +0.1 87 -5 -5 994.2 986.6
15 20.10 З 7-13
{14}
50 км 10/10 500 м
[Cb cap]
+1.2 -1.4 83 -5 -5 995.6 988.0 +3.9 2
18 20.10 З 6
{14}
50 км 10/10 480 м
[Cb cap]
+0.3 -2.4 82 -6 -6 996.4 988.8
21 20.10 З 7-13
{13}
50 км 10/10 480 м
[Cb cap]
-0.8 -2.3 90 -8 -8 997.3 989.6
00 21.10 З 7-11
{13}
9000 м слабый ливневой снег 10/10 450 м
[Cb cap]
-0.9 -3.2 84 -8 -8 998.8 991.1
03 21.10 З 6-10
{11}
50 км {ливн. осадки} 10/10 500 м
[Cb cap]
-1.2 -4.1 81 -8 -8 1000.6 992.9 -1.2 0.7 1
06 21.10 З 5
{12}
8000 м слабый ливневой снег 10/10 480 м
[Cb cap]
-1.3 -3.7 84 -8 -8 1002.3 994.6 -1.3
09 21.10 З 6-12
{12}
50 км {ливн. осадки} 10/3 300 м
[Cb cap Ac und]
-0.2 -5.5 67 -7 -6 1004.0 996.3
12 21.10 СЗ 6-11
{12}
50 км {ливн. осадки} 9/0
[Ac trans]
-0.0 -7.6 57 -6 -6 1005.5 997.7
15 21.10 З 4
{11}
50 км 10/0
[Ac und]
-1.1 -6.7 66 -6 -6 1006.1 998.3 +0.1 0.3
18 21.10 З 3 50 км {ливн. осадки} 8/0
[Ac trans]
-2.2 -7.0 70 -7 -7 1006.3 998.5
21 21.10 З 3 50 км 4/0
[Ci fib]
-4.4 -7.8 77 -10 -10 1007.0 999.1
00 22.10 ЮЗ 4 50 км 4/0
[Ci fib]
-4.2 -6.9 81 -10 -10 1007.5 999.7

 

Местоположение метеостанции Таборы (Свердловская область, Россия): широта 58.53 долгота 64.50 высота над уровнем моря 63 м.

В архиве по умолчанию представлена погода в Таборах за последнюю неделю. Архивные данные за месяц целиком и за предыдущие месяцы, начиная с января 2011 года, Вы можете получить, выбрав интересующий диапазон дат из раскрывающегося списка и нажав кнопку "Ввод!".

Внимание! Время в таблицах - всемирное. Для получения местного времени необходимо прибавить поправку, которая в Таборах равна 5 ч.

Смотрите также архив погоды в соседних городах и на ближайших метеорологических станциях:

Погода в Тавде (Свердловская область, Россия) (68 км)
Погода в Туринске (Свердловская область, Россия) (72 км)
Погода в Куминской (Ханты-Мансийский АО, Россия) (94 км)
Погода в Ирбите (Свердловская область, Россия) (135 км)
Погода в Леушах (Ханты-Мансийский АО, Россия) (141 км)
Погода в Гари (Свердловская область, Россия) (160 км)
Погода в Тугулыме (Свердловская область, Россия) (163 км)
Погода в Тюмени (Тюменская область, Россия) (166 км)
Погода в Алапаевске (Свердловская область, Россия) (180 км)
Погода в Ярково (Тюменская область, Россия) (196 км)

Пояснения к столбцам:

Ветер - указаны скорость ветра в м/с - средняя за 10 мин, порывы в срок и между сроками (в фигурных скобках) и направление, откуда дует ветер: С - северный, СВ - северо-восточный, В - восточный, ЮВ - юго-восточный, Ю - южный, ЮЗ - юго-западный, З - западный, СЗ - северо-западный.
Видимость - горизонтальная дальность видимости в метрах или километрах. При видимости от 1 до 10 км при отсутствии осадков обычно наблюдается дымка, при ухудшении видимости до 1 км и менее - туман. В сухую погоду видимость может ухудшаться дымом, пылью или мглою.
Явления - указаны атмосферные явления, наблюдавшиеся в срок или в последний час перед сроком; фигурными скобками обозначены явления, наблюдавшиеся между сроками (за 1-3 часа до срока); квадратными скобками обозначены град или гололедные отложения с указанием их диаметра в мм.
Облачность - указаны через наклонную черту общая и нижняя облачность в баллах и высота нижней границы облаков в метрах; квадратными скобками обозначены формы облаков: Ci - перистые, Cs - перисто-слоистые, Cc - перисто-кучевые, Ac - высококучевые, As - высокослоистые, Sc - слоисто-кучевые, Ns - слоисто-дождевые, Cu - кучевые, Cb - кучево-дождевые. Подробнее классификацию облаков см. в Атласе облаков (PDF).
T - Температура воздуха - температура, измеренная на высоте 2 м над землей.
Td - Температура точки росы - температура, при понижении до которой содержащийся в воздухе водяной пар достигнет насыщения.
f - Относительная влажность воздуха - влажноcть воздуха, измеренная на высоте 2 м над землей.
Te - Эффективная температура - температура, которую ощущает одетый по сезону человек в тени. Характеристика душности погоды. При расчете учитывается влияние влажности воздуха и скорости ветра на теплоощущения человека.
Tes - Эффективная температура на солнце - температура, которую ощущает человек, с поправкой на солнечный нагрев. Характеристика знойности погоды. Зависит от высоты солнца над горизонтом, облачности и скорости ветра. Ночью, в пасмурную погоду, а также при ветре 12 м/с и более поправка равна нулю.
P - Атмосферное давление - приведенное к уровню моря атмосферное давление.
Po - Атмосферное давление - измеренное на уровне метеостанции атмосферное давление.
Tmin - Минимальная температура - минимум температуры воздуха на высоте 2 м над землей.
Tmax - Максимальная температура - максимум температуры воздуха на высоте 2 м над землей.
R - Количество осадков - Количество выпавших осадков за период времени, мм. При наведении курсора мыши на число - период времени, за который выпало указанное количество осадков.
R24 - Количество осадков - Количество выпавших осадков за 24 часа, мм.
S - Снежный покров - Высота снежного покрова, см. При наведении курсора мыши на число - состояние снежного покрова и степень покрытия местности в баллах.